www.pogodaiklimat.ru

Погода и климат >> Архив погоды >> Россия >> Якутия >> Анабар


ПОГОДА в Анабаре

  • Прогноз погоды в Анабаре
  • Монитор погоды в Анабаре

АРХИВ ПОГОДЫ в Анабаре

Время (UTC), дата Ветер
(напр.,м/с)
 
Видим.   Явления Облачность Т
(С)
Тd
(С)
f
(%)
Тe
(С)
Тes
(С)
Комфортность P
(гПа)
Po
(гПа)
Тmin
(С)
Tmax
(С)
R
(мм)
R24
(мм)
S
(см)
12 13.05 В 10-11
{13}
4000 м метель 10/10 300 м
[Sc]
-6.3 -6.7 97 -16 -16 1029.1 1027.4 -4.2
15 13.05 В 8
{11}
20 км позёмок 10/10 300 м
[Sc]
-8.4 -8.7 98 -18 -18 1030.4 1028.6
18 13.05 В 6 20 км позёмок 9/9 300 м
[Sc]
-11.3 -11.9 95 -20 -20 1030.5 1028.7
21 13.05 С 5 20 км {метель} 10/10 300 м
[Sc]
-10.7 -11.3 95 -19 -19 1030.4 1028.6
00 14.05 С 6 20 км позёмок 9/9 300 м
[Sc]
-10.5 -11.1 95 -19 -19 1030.0 1028.2 -12.8 16
03 14.05 С 6 10 км слаб. снег {метель} 10/10 300 м
[Sc]
-9.8 -10.6 94 -18 -18 1029.7 1027.9
06 14.05 С 7 20 км позёмок {снег} 10/10 300 м
[Sc]
-9.0 -9.3 98 -18 -18 1028.9 1027.2
09 14.05 СВ 5 20 км {метель} 10/10 300 м
[Sc]
-8.3 -8.9 95 -16 -16 1029.0 1027.3
12 14.05 С 7 20 км позёмок 10/10 300 м
[Sc]
-9.6 -9.9 98 -19 -19 1028.8 1027.0 -8.3
15 14.05 СВ 4 20 км {метель} 10/10 300 м
[Sc]
-9.9 -10.3 97 -17 -17 1029.1 1027.3
21 14.05 С 5 10 км слаб. снег 10/10 300 м
[Sc]
-9.4 -9.7 98 -17 -17 1027.5 1025.7
00 15.05 С 5 10 км слаб. снег 10/10 300 м
[Sc]
-9.1 -9.4 98 -17 -17 1027.3 1025.6 -10.5 0.0 16
06 15.05 С 6 10 км слаб. снег {метель} 10/10 300 м
[Sc]
-8.1 -8.7 95 -17 -17 1026.9 1025.2
09 15.05 С 5 10 км слаб. снег {метель} 10/10 300 м
[Sc]
-8.1 -9.1 92 -16 -16 1027.0 1025.3
12 15.05 С 4 20 км {снег, метель} 10/10 300 м
[Sc]
-8.5 -9.2 95 -15 -15 1027.3 1025.6 -8.1 0.4
15 15.05 С 3 10 км слаб. снег 10/10 300 м
[Sc]
-9.1 -9.8 95 -15 -15 1027.6 1025.9
18 15.05 С 3 20 км {снег} 10/10 300 м
[Sc]
-9.8 -10.2 97 -16 -16 1027.6 1025.8
21 15.05 С 3 20 км 10/8 300 м
[Sc Ac und]
-9.4 -9.7 98 -15 -15 1027.2 1025.4
00 16.05 С 4 20 км 10/6 300 м
[Sc Ac und]
-9.2 -9.9 95 -16 -16 1027.6 1025.9 -9.9 0.2 16
03 16.05 СВ 3 20 км 10/10 300 м
[Sc]
-8.5 -8.8 98 -14 -14 1027.6 1025.9
06 16.05 С 2 20 км 10/10 300 м
[Sc]
-8.0 -8.6 95 -13 -13 1027.6 1025.9
09 16.05 С 1 20 км 10/10 300 м
[Sc]
-7.7 -8.3 95 -10 -10 1028.3 1026.6
12 16.05 С 1 10 км слаб. снег 10/10 300 м
[Sc]
-9.0 -9.7 95 -11 -11 1028.8 1027.1 -7.6 0.0
15 16.05 С 3 20 км {снег} 10/10 300 м
[Sc]
-9.8 -10.2 97 -16 -16 1028.8 1027.0
18 16.05 С 3 20 км {снег} 10/10 300 м
[Sc]
-10.4 -10.9 96 -16 -16 1029.0 1027.2
21 16.05 С 4 20 км 10/10 300 м
[Sc]
-10.7 -11.3 95 -18 -18 1029.1 1027.3
00 17.05 С 4 20 км 10/10
[Sc]
-10.4 -11.0 95 -17 -17 1029.8 1028.0 -10.7 0.0 16
03 17.05 С 3 20 км 10/10 300 м
[Sc]
-9.6 -10.4 94 -16 -16 1030.4 1028.6
06 17.05 С 3 20 км 10/10 300 м
[Sc]
-9.2 -10.3 92 -15 -15 1030.7 1028.9
09 17.05 С 2 20 км 10/10 300 м
[Sc]
-8.9 -10.0 92 -13 -13 1031.5 1029.7
12 17.05 С 3 20 км 10/10 300 м
[Sc]
-9.1 -9.8 95 -15 -15 1032.5 1030.7 -8.9
15 17.05 С 2 10 км слаб. снег 10/10 300 м
[Sc]
-9.7 -10.1 97 -14 -14 1032.6 1030.8
18 17.05 С 2 10 км слаб. снег 10/10 300 м
[Sc]
-10.1 -10.7 95 -15 -15 1032.8 1031.0
21 17.05 С 1 20 км {снег} 10/10 300 м
[Sc]
-9.7 -10.1 97 -12 -12 1032.8 1031.0
00 18.05 СВ 2 20 км {снег} 10/8 300 м
[Sc Ac und]
-8.6 -9.3 95 -13 -13 1033.0 1031.2 -10.2 0.3 16
03 18.05 В 3 20 км 10/6 300 м
[Sc Ac und]
-8.5 -9.6 92 -14 -14 1033.1 1031.3
06 18.05 СВ 3 10 км слаб. снег 10/10 300 м
[Sc]
-8.5 -10.4 86 -14 -14 1033.2 1031.4
09 18.05 СВ 1 10 км слаб. снег 10/10 300 м
[Sc]
-8.6 -10.5 86 -11 -11 1032.4 1030.6
12 18.05 СВ 2 10 км слаб. снег 10/10 300 м
[Sc]
-9.4 -10.6 91 -14 -14 1032.3 1030.5 -8.3 0.0
15 18.05 С 1 10 км слаб. снег 10/10 300 м
[Sc]
-10.3 -10.9 95 -13 -13 1031.5 1029.7
18 18.05 С 2 10 км слаб. снег 10/10 300 м
[Sc]
-11.0 -11.6 95 -16 -16 1030.5 1028.7
21 18.05 С 1 10 км слаб. снег 10/10 300 м
[Sc]
-11.0 -11.6 95 -13 -13 1029.4 1027.6
00 19.05 З 1 10 км слаб. снег 10/10 300 м
[Sc]
-9.4 -10.6 91 -12 -12 1028.8 1027.0 -11.3 0.3 16
03 19.05 С 1 10 км слаб. снег 10/10 300 м
[Sc]
-10.9 -11.5 95 -13 -13 1027.2 1025.4
06 19.05 С 2 10 км слаб. снег 10/10 300 м
[Sc]
-10.4 -11.7 90 -15 -15 1025.9 1024.1
09 19.05 С 1 20 км {снег} 10/8 300 м
[Sc Ac und]
-10.5 -11.1 95 -13 -13 1024.7 1022.9
12 19.05 В 2 20 км {снег} 10/10 300 м
[Sc]
-10.7 -11.3 95 -15 -15 1023.8 1022.0 -9.4 0.2
15 19.05 С 3 20 км 10/10 300 м
[Sc]
-11.1 -11.7 95 -17 -17 1022.8 1021.0
18 19.05 С 4 20 км 3/3 300 м
[Sc]
-15.8 -16.4 95 -24 -24 1021.5 1019.7
21 19.05 С 3 20 км 9/9 300 м
[Sc]
-13.9 -14.5 95 -20 -20 1020.4 1018.6
00 20.05 С 3 10 км слаб. снег 10/10 300 м
[Sc]
-11.1 -11.7 95 -17 -17 1019.3 1017.5 -18.1 0.0 16
03 20.05 СЗ 4 20 км {снег} 8/8 300 м
[Sc]
-10.2 -10.8 95 -17 -16 1018.1 1016.4
06 20.05 СЗ 5 20 км {снег} 10/10 300 м
[St]
-7.9 -8.1 98 -16 -16 1017.2 1015.5

 

Местоположение метеостанции Анабар (Якутия, Россия): широта 73.22 долгота 113.50 высота над уровнем моря 13 м.

В архиве по умолчанию представлена погода в Анабаре за последнюю неделю. Архивные данные за месяц целиком и за предыдущие месяцы, начиная с января 2011 года, Вы можете получить, выбрав интересующий диапазон дат из раскрывающегося списка и нажав кнопку "Ввод!".


*Определитесь, кто Вы:
робот инопланетянин человек

Внимание! Время в таблицах - всемирное. Для получения местного времени необходимо прибавить поправку, которая равна 9 ч.

Смотрите также архив погоды в соседних городах и на ближайших метеорологических станциях:

Погода в Саскылахе (Якутия, Россия) (140 км)
Погода на Острове Преображения (Якутия, Россия) (162 км)
Погода на Усть-Оленеке (Якутия, Россия) (205 км)
Погода в Джалинде (Якутия, Россия) (344 км)
Погода в Тюмяти (Якутия, Россия) (363 км)
Погода в Хатанге (Красноярский край, Россия) (391 км)
Погода на Столб Острове (Якутия, Россия) (430 км)
Погода в Оленеке (Якутия, Россия) (526 км)
Погода на Мысе Быков (Якутия, Россия) (534 км)
Погода в Сухане (Якутия, Россия) (540 км)

Пояснения к столбцам:

Ветер - указаны скорость ветра в м/с - средняя за 10 мин, порывы в срок и между сроками (в фигурных скобках) и направление, откуда дует ветер: С - северный, СВ - северо-восточный, В - восточный, ЮВ - юго-восточный, Ю - южный, ЮЗ - юго-западный, З - западный, СЗ - северо-западный.
Видимость - горизонтальная дальность видимости в метрах или километрах. При видимости от 1 до 10 км при отсутствии осадков обычно наблюдается дымка, при ухудшении видимости до 1 км и менее - туман. В сухую погоду видимость может ухудшаться дымом, пылью или мглою.
Явления - указаны атмосферные явления, наблюдавшиеся в срок или в последний час перед сроком; фигурными скобками обозначены явления, наблюдавшиеся между сроками (за 1-3 часа до срока); квадратными скобками обозначены град или гололедные отложения с указанием их диаметра в мм.
Облачность - указаны через наклонную черту общая и нижняя облачность в баллах и высота нижней границы облаков в метрах; квадратными скобками обозначены формы облаков: Ci - перистые, Cs - перисто-слоистые, Cc - перисто-кучевые, Ac - высококучевые, As - высокослоистые, Sc - слоисто-кучевые, Ns - слоисто-дождевые, Cu - кучевые, Cb - кучево-дождевые. Подробнее классификацию облаков см. в Атласе облаков (PDF).
T - Температура воздуха - температура, измеренная на высоте 2 м над землей.
Td - Температура точки росы - температура, при понижении до которой содержащийся в воздухе водяной пар достигнет насыщения.
f - Относительная влажность воздуха - влажноcть воздуха, измеренная на высоте 2 м над землей.
Te - Эффективная температура - температура, которую ощущает одетый по сезону человек в тени. Характеристика душности погоды. При расчете учитывается влияние влажности воздуха и скорости ветра на теплоощущения человека.
Tes - Эффективная температура на солнце - температура, которую ощущает человек, с поправкой на солнечный нагрев. Характеристика знойности погоды. Зависит от высоты солнца над горизонтом, облачности и скорости ветра. Ночью, в пасмурную погоду, а также при ветре 12 м/с и более поправка равна нулю.
P - Атмосферное давление - приведенное к уровню моря атмосферное давление.
Po - Атмосферное давление - измеренное на уровне метеостанции атмосферное давление.
Tmin - Минимальная температура - минимум температуры воздуха на высоте 2 м над землей.
Tmax - Максимальная температура - максимум температуры воздуха на высоте 2 м над землей.
R - Количество осадков - Количество выпавших осадков за период времени, мм. При наведении курсора мыши на число - период времени, за который выпало указанное количество осадков.
R24 - Количество осадков - Количество выпавших осадков за 24 часа, мм.
S - Снежный покров - Высота снежного покрова, см. При наведении курсора мыши на число - состояние снежного покрова и степень покрытия местности в баллах.